This is the latest recevied weather packets stored in our database for station/object OE9GTV. If no packets are shown the sender has not sent any weather packets the latest 1 day(s).
| Time | Temp. | Humidity | Pressure | Rain* | Wind** | Luminosity | Snow |
|---|---|---|---|---|---|---|---|
| 1777984275 | 17.78° C | 69% | 1004.6 hPa | 0 mm | 0.89 m/s, 324° | 0 W/m² | - |
| 1777983675 | 17.22° C | 67% | 1004.8 hPa | 0 mm | 0.45 m/s, 21° | 0 W/m² | - |
| 1777983075 | 17.22° C | 68% | 1004.9 hPa | 0 mm | 1.34 m/s, 19° | 0 W/m² | - |
| 1777982475 | 16.67° C | 68% | 1005 hPa | 0 mm | 0.89 m/s, 43° | 0 W/m² | - |
| 1777981875 | 16.67° C | 70% | 1005.1 hPa | 0 mm | 1.34 m/s, 43° | 0 W/m² | - |
| 1777981274 | 16.67° C | 71% | 1005.1 hPa | 0 mm | 0.45 m/s, 42° | 0 W/m² | - |
| 1777980674 | 16.67° C | 71% | 1005.2 hPa | 0 mm | 1.34 m/s, 44° | 0 W/m² | - |
| 1777980075 | 16.11° C | 72% | 1005.3 hPa | 0 mm | 0.89 m/s, 45° | 0 W/m² | - |
| 1777979475 | 16.67° C | 71% | 1005.4 hPa | 0 mm | 1.34 m/s, 51° | 0 W/m² | - |
| 1777978874 | 16.67° C | 71% | 1005.3 hPa | 0 mm | 1.79 m/s, 61° | 0 W/m² | - |
| 1777978275 | 16.67° C | 71% | 1005.3 hPa | 0 mm | 0.89 m/s, 150° | 0 W/m² | - |
| 1777977674 | 16.11° C | 72% | 1005.5 hPa | 0 mm | 0.89 m/s, 161° | 0 W/m² | - |
| 1777977074 | 16.11° C | 72% | 1005.6 hPa | 0 mm | 0.89 m/s, 165° | 0 W/m² | - |
| 1777976474 | 15.56° C | 73% | 1005.5 hPa | 0 mm | 0.45 m/s, 166° | 0 W/m² | - |
| 1777975874 | 15.56° C | 74% | 1005.7 hPa | 0 mm | 0.45 m/s, 169° | 0 W/m² | - |
| 1777975274 | 15° C | 75% | 1005.7 hPa | 0 mm | 0.89 m/s, 169° | 0 W/m² | - |
| 1777974674 | 15° C | 76% | 1005.7 hPa | 0 mm | 0.45 m/s, 169° | 0 W/m² | - |
| 1777974074 | 15° C | 76% | 1005.7 hPa | 0 mm | 0 m/s | 0 W/m² | - |
| 1777973474 | 14.44° C | 77% | 1005.8 hPa | 0 mm | 0.45 m/s, 169° | 0 W/m² | - |
| 1777972874 | 14.44° C | 77% | 1005.9 hPa | 0 mm | 0 m/s | 0 W/m² | - |
| 1777972274 | 14.44° C | 78% | 1005.9 hPa | 0 mm | 0 m/s | 0 W/m² | - |
| 1777971674 | 14.44° C | 78% | 1005.9 hPa | 0 mm | 0.45 m/s, 169° | 0 W/m² | - |
| 1777971074 | 14.44° C | 78% | 1005.9 hPa | 0 mm | 0 m/s | 0 W/m² | - |
| 1777970474 | 13.89° C | 78% | 1006 hPa | 0 mm | 0 m/s | 0 W/m² | - |
| 1777969873 | 13.89° C | 78% | 1006.1 hPa | 0 mm | 0.89 m/s, 169° | 0 W/m² | - |
* Rain latest hour (hover to see other rain measurements)
** Current wind speed in m/s (hover to see current wind gust speed)